Location: Newark
(48.9358°N, 1.4000°E)
Time: 17:32:19
(UTC+00:00)

N. Korean satellite - Pass Details

Date: 19 October 2019
Orbit: 456 x 506 km, 97.2° (Epoch: 21 November)

Event Time Altitude Azimuth Distance (km) Brightness Sun altitude
Rises 17:24:18 0° 186° (S) 2,464 10.4 -5.1°
Reaches altitude 10° 17:26:26 10° 195° (SSW) 1,597 9.5 -5.5°
Maximum altitude 17:29:36 35° 263° (W) 766 8.5 -6.0°
Drops below altitude 10° 17:32:50 10° 331° (NNW) 1,622 9.5 -6.5°
Sets 17:35:01 0° 340° (NNW) 2,510 10.4 -6.9°
